Black River (Missouri), Poplar Bluff (07063000)

StateMissouriLatestLow (899 cfs)
RiverBlack RiverRatingObservedEstimated
Updated2026-05-10 8:15 (1 hour ago)Flood - The river is flooding. Obstacles can be treacherous or deadly. The river should be avoided at this stage for casual trips and definitely for the inexperienced. Trips should be attempted only with protective gear and equipment.Flood(none)4093
Discharge899 cfs (median: 2290 cfs)High - The river is high and potentially dangerous, especially for the young and / or inexperienced. Normal stream obstacles are sometimes difficult to navigate. Extended distances can be attempted, but canoe travel may not be advisable.High(none)2065
Height1.4 feetGood - Conditions are ideal for a canoe or kayak. Boats typically will drag on fewer than one-quarter of riffles, if at all, and portages are unnecessary or rare. Normal float lengths can be attempted without a problem.Good(none)992
TrendFalling (falling over 24 hours)Low - River is low but can still be floated. Some riffles are okay but most come with significant dragging and might need a portage. Float lengths should be reduced to accommodate low flow, dragging, and portages.Low(none)651
USGSExternal icon USGS Site (External icon Duck Duck Go Maps)Poor - River is too low to float comfortably. Most or all riffles will drag or must be portaged and some obstacles (such as slick shelf rock) cause undue problems. Avoid the river at this stage for casual paddling trips.Poor(none)340

Trending Data

Plot Image

Trips for Black River (Missouri), Poplar Bluff (07063000)

DateStartEndDistanceConditionDischargeHeightFishingDetails

A total of 0 rows are displayed.

Condition Descriptions

Fishing Conditions

Fish Species

Notes

Classic Trip List

The classic River Trips application is still available for use. It is updated with the new system using a data retrofit. It is no longer maintained. The original River Trips application is no longer updated (as of 1 Dec 2016) but can be checked for errors or for the condition of the data before it was converted to the new system.

Gauge Data Table

ObservationHeightDischargeMaximum
Discharge
Minimum
Discharge
Mean
Discharge
P05P10P20P25P50
(Median)
P75P80P90P95
2026-05-10 08:15 1.40 899 8500 (2002) 324 (2000) 2350 524 594 809 855 2290 3590 3660 3980 4910
2026-05-10 07:15 1.42 906 8500 (2002) 324 (2000) 2350 524 594 809 855 2290 3590 3660 3980 4910
2026-05-10 06:15 1.42 906 8500 (2002) 324 (2000) 2350 524 594 809 855 2290 3590 3660 3980 4910
2026-05-10 05:15 1.42 906 8500 (2002) 324 (2000) 2350 524 594 809 855 2290 3590 3660 3980 4910
2026-05-10 04:15 1.44 913 8500 (2002) 324 (2000) 2350 524 594 809 855 2290 3590 3660 3980 4910
2026-05-10 03:15 1.44 913 8500 (2002) 324 (2000) 2350 524 594 809 855 2290 3590 3660 3980 4910
2026-05-10 02:15 1.45 916 8500 (2002) 324 (2000) 2350 524 594 809 855 2290 3590 3660 3980 4910
2026-05-10 01:15 1.47 923 8500 (2002) 324 (2000) 2350 524 594 809 855 2290 3590 3660 3980 4910
2026-05-10 00:15 1.46 920 8500 (2002) 324 (2000) 2350 524 594 809 855 2290 3590 3660 3980 4910
2026-05-09 23:15 1.48 927 8500 (2002) 324 (2000) 2350 524 594 809 855 2290 3590 3660 3980 4910
2026-05-09 22:15 1.48 927 11500 (1961) 328 (2000) 2480 562 613 804 856 2490 3730 3890 4070 5140
2026-05-09 21:15 1.50 934 11500 (1961) 328 (2000) 2480 562 613 804 856 2490 3730 3890 4070 5140
2026-05-09 20:15 1.50 934 11500 (1961) 328 (2000) 2480 562 613 804 856 2490 3730 3890 4070 5140
2026-05-09 19:15 1.53 944 11500 (1961) 328 (2000) 2480 562 613 804 856 2490 3730 3890 4070 5140
2026-05-09 18:15 1.53 944 11500 (1961) 328 (2000) 2480 562 613 804 856 2490 3730 3890 4070 5140
2026-05-09 17:15 1.55 951 11500 (1961) 328 (2000) 2480 562 613 804 856 2490 3730 3890 4070 5140
2026-05-09 16:15 1.57 958 11500 (1961) 328 (2000) 2480 562 613 804 856 2490 3730 3890 4070 5140
2026-05-09 15:15 1.57 958 11500 (1961) 328 (2000) 2480 562 613 804 856 2490 3730 3890 4070 5140
2026-05-09 14:15 1.60 968 11500 (1961) 328 (2000) 2480 562 613 804 856 2490 3730 3890 4070 5140
2026-05-09 13:15 1.61 971 11500 (1961) 328 (2000) 2480 562 613 804 856 2490 3730 3890 4070 5140
2026-05-09 12:15 1.63 978 11500 (1961) 328 (2000) 2480 562 613 804 856 2490 3730 3890 4070 5140
2026-05-09 11:15 1.66 989 11500 (1961) 328 (2000) 2480 562 613 804 856 2490 3730 3890 4070 5140
2026-05-09 10:15 1.69 999 11500 (1961) 328 (2000) 2480 562 613 804 856 2490 3730 3890 4070 5140
2026-05-09 09:15 1.72 1010 11500 (1961) 328 (2000) 2480 562 613 804 856 2490 3730 3890 4070 5140
2026-05-09 08:15 1.74 1020 11500 (1961) 328 (2000) 2480 562 613 804 856 2490 3730 3890 4070 5140
2026-05-09 07:15 1.74 1020 11500 (1961) 328 (2000) 2480 562 613 804 856 2490 3730 3890 4070 5140
2026-05-09 06:15 1.77 1030 11500 (1961) 328 (2000) 2480 562 613 804 856 2490 3730 3890 4070 5140
2026-05-09 05:15 1.79 1030 11500 (1961) 328 (2000) 2480 562 613 804 856 2490 3730 3890 4070 5140
2026-05-09 04:15 1.80 1040 11500 (1961) 328 (2000) 2480 562 613 804 856 2490 3730 3890 4070 5140
2026-05-09 03:15 1.82 1040 11500 (1961) 328 (2000) 2480 562 613 804 856 2490 3730 3890 4070 5140
2026-05-09 02:15 1.82 1040 11500 (1961) 328 (2000) 2480 562 613 804 856 2490 3730 3890 4070 5140
2026-05-09 01:15 1.81 1040 11500 (1961) 328 (2000) 2480 562 613 804 856 2490 3730 3890 4070 5140
2026-05-09 00:15 1.81 1040 11500 (1961) 328 (2000) 2480 562 613 804 856 2490 3730 3890 4070 5140
2026-05-08 23:15 1.82 1040 11500 (1961) 328 (2000) 2480 562 613 804 856 2490 3730 3890 4070 5140
2026-05-08 22:15 1.82 1040 12500 (1961) 333 (2000) 2500 499 603 830 888 2420 3550 3760 4120 5420
2026-05-08 21:15 1.82 1040 12500 (1961) 333 (2000) 2500 499 603 830 888 2420 3550 3760 4120 5420
2026-05-08 20:15 1.82 1040 12500 (1961) 333 (2000) 2500 499 603 830 888 2420 3550 3760 4120 5420
2026-05-08 19:15 1.82 1040 12500 (1961) 333 (2000) 2500 499 603 830 888 2420 3550 3760 4120 5420
2026-05-08 18:15 1.83 1050 12500 (1961) 333 (2000) 2500 499 603 830 888 2420 3550 3760 4120 5420
2026-05-08 17:15 1.84 1050 12500 (1961) 333 (2000) 2500 499 603 830 888 2420 3550 3760 4120 5420
2026-05-08 16:15 1.84 1050 12500 (1961) 333 (2000) 2500 499 603 830 888 2420 3550 3760 4120 5420
2026-05-08 15:15 1.82 1040 12500 (1961) 333 (2000) 2500 499 603 830 888 2420 3550 3760 4120 5420
2026-05-08 14:15 1.83 1050 12500 (1961) 333 (2000) 2500 499 603 830 888 2420 3550 3760 4120 5420
2026-05-08 13:15 1.84 1050 12500 (1961) 333 (2000) 2500 499 603 830 888 2420 3550 3760 4120 5420
2026-05-08 12:15 1.82 1040 12500 (1961) 333 (2000) 2500 499 603 830 888 2420 3550 3760 4120 5420
2026-05-08 11:15 1.84 1050 12500 (1961) 333 (2000) 2500 499 603 830 888 2420 3550 3760 4120 5420
2026-05-08 10:15 1.83 1050 12500 (1961) 333 (2000) 2500 499 603 830 888 2420 3550 3760 4120 5420
2026-05-08 09:15 1.84 1050 12500 (1961) 333 (2000) 2500 499 603 830 888 2420 3550 3760 4120 5420
2026-05-08 08:15 1.84 1050 12500 (1961) 333 (2000) 2500 499 603 830 888 2420 3550 3760 4120 5420
2026-05-08 07:15 1.84 1050 12500 (1961) 333 (2000) 2500 499 603 830 888 2420 3550 3760 4120 5420
2026-05-08 06:15 1.84 1050 12500 (1961) 333 (2000) 2500 499 603 830 888 2420 3550 3760 4120 5420
2026-05-08 05:15 1.85 1050 12500 (1961) 333 (2000) 2500 499 603 830 888 2420 3550 3760 4120 5420
2026-05-08 04:15 1.85 1050 12500 (1961) 333 (2000) 2500 499 603 830 888 2420 3550 3760 4120 5420
2026-05-08 03:15 1.85 1050 12500 (1961) 333 (2000) 2500 499 603 830 888 2420 3550 3760 4120 5420
2026-05-08 02:15 1.86 1060 12500 (1961) 333 (2000) 2500 499 603 830 888 2420 3550 3760 4120 5420
2026-05-08 01:15 1.85 1050 12500 (1961) 333 (2000) 2500 499 603 830 888 2420 3550 3760 4120 5420
2026-05-08 00:15 1.84 1050 12500 (1961) 333 (2000) 2500 499 603 830 888 2420 3550 3760 4120 5420
2026-05-07 23:15 1.84 1050 12500 (1961) 333 (2000) 2500 499 603 830 888 2420 3550 3760 4120 5420
2026-05-07 22:15 1.84 1050 6820 (1961) 339 (2000) 2440 510 602 872 960 2650 3530 3780 4150 5480
2026-05-07 21:15 1.84 1050 6820 (1961) 339 (2000) 2440 510 602 872 960 2650 3530 3780 4150 5480
2026-05-07 20:15 1.84 1050 6820 (1961) 339 (2000) 2440 510 602 872 960 2650 3530 3780 4150 5480
2026-05-07 19:15 1.82 1040 6820 (1961) 339 (2000) 2440 510 602 872 960 2650 3530 3780 4150 5480
2026-05-07 18:15 1.82 1040 6820 (1961) 339 (2000) 2440 510 602 872 960 2650 3530 3780 4150 5480
2026-05-07 17:15 1.80 1040 6820 (1961) 339 (2000) 2440 510 602 872 960 2650 3530 3780 4150 5480
2026-05-07 16:15 1.80 1040 6820 (1961) 339 (2000) 2440 510 602 872 960 2650 3530 3780 4150 5480
2026-05-07 15:15 1.78 1030 6820 (1961) 339 (2000) 2440 510 602 872 960 2650 3530 3780 4150 5480
2026-05-07 14:15 1.77 1030 6820 (1961) 339 (2000) 2440 510 602 872 960 2650 3530 3780 4150 5480
2026-05-07 13:15 1.75 1020 6820 (1961) 339 (2000) 2440 510 602 872 960 2650 3530 3780 4150 5480
2026-05-07 12:15 1.73 1010 6820 (1961) 339 (2000) 2440 510 602 872 960 2650 3530 3780 4150 5480
2026-05-07 11:15 1.73 1010 6820 (1961) 339 (2000) 2440 510 602 872 960 2650 3530 3780 4150 5480
2026-05-07 10:15 1.71 1010 6820 (1961) 339 (2000) 2440 510 602 872 960 2650 3530 3780 4150 5480
2026-05-07 09:15 1.69 999 6820 (1961) 339 (2000) 2440 510 602 872 960 2650 3530 3780 4150 5480
2026-05-07 08:15 1.69 999 6820 (1961) 339 (2000) 2440 510 602 872 960 2650 3530 3780 4150 5480
2026-05-07 07:15 1.66 989 6820 (1961) 339 (2000) 2440 510 602 872 960 2650 3530 3780 4150 5480
2026-05-07 06:15 1.67 992 6820 (1961) 339 (2000) 2440 510 602 872 960 2650 3530 3780 4150 5480
2026-05-07 05:15 1.65 985 6820 (1961) 339 (2000) 2440 510 602 872 960 2650 3530 3780 4150 5480
2026-05-07 04:15 1.66 989 6820 (1961) 339 (2000) 2440 510 602 872 960 2650 3530 3780 4150 5480
2026-05-07 03:15 1.66 989 6820 (1961) 339 (2000) 2440 510 602 872 960 2650 3530 3780 4150 5480
2026-05-07 02:15 1.67 992 6820 (1961) 339 (2000) 2440 510 602 872 960 2650 3530 3780 4150 5480
2026-05-07 01:15 1.67 992 6820 (1961) 339 (2000) 2440 510 602 872 960 2650 3530 3780 4150 5480
2026-05-07 00:15 1.68 996 6820 (1961) 339 (2000) 2440 510 602 872 960 2650 3530 3780 4150 5480
2026-05-06 23:15 1.67 992 6820 (1961) 339 (2000) 2440 510 602 872 960 2650 3530 3780 4150 5480
2026-05-06 22:15 1.68 996 6900 (1958) 347 (2000) 2440 492 622 922 1030 2380 3500 3740 4410 5210
2026-05-06 21:15 1.69 999 6900 (1958) 347 (2000) 2440 492 622 922 1030 2380 3500 3740 4410 5210
2026-05-06 20:15 1.69 999 6900 (1958) 347 (2000) 2440 492 622 922 1030 2380 3500 3740 4410 5210
2026-05-06 19:15 1.69 999 6900 (1958) 347 (2000) 2440 492 622 922 1030 2380 3500 3740 4410 5210
2026-05-06 18:15 1.68 996 6900 (1958) 347 (2000) 2440 492 622 922 1030 2380 3500 3740 4410 5210
2026-05-06 17:15 1.69 999 6900 (1958) 347 (2000) 2440 492 622 922 1030 2380 3500 3740 4410 5210
2026-05-06 16:15 1.69 999 6900 (1958) 347 (2000) 2440 492 622 922 1030 2380 3500 3740 4410 5210
2026-05-06 15:15 1.68 996 6900 (1958) 347 (2000) 2440 492 622 922 1030 2380 3500 3740 4410 5210
2026-05-06 14:15 1.69 999 6900 (1958) 347 (2000) 2440 492 622 922 1030 2380 3500 3740 4410 5210
2026-05-06 13:15 1.69 999 6900 (1958) 347 (2000) 2440 492 622 922 1030 2380 3500 3740 4410 5210
2026-05-06 12:15 1.70 1000 6900 (1958) 347 (2000) 2440 492 622 922 1030 2380 3500 3740 4410 5210
2026-05-06 11:15 1.69 999 6900 (1958) 347 (2000) 2440 492 622 922 1030 2380 3500 3740 4410 5210
2026-05-06 10:15 1.70 1000 6900 (1958) 347 (2000) 2440 492 622 922 1030 2380 3500 3740 4410 5210
2026-05-06 09:15 1.69 999 6900 (1958) 347 (2000) 2440 492 622 922 1030 2380 3500 3740 4410 5210
2026-05-06 08:15 1.70 1000 6900 (1958) 347 (2000) 2440 492 622 922 1030 2380 3500 3740 4410 5210
2026-05-06 07:15 1.70 1000 6900 (1958) 347 (2000) 2440 492 622 922 1030 2380 3500 3740 4410 5210
2026-05-06 06:15 1.71 1010 6900 (1958) 347 (2000) 2440 492 622 922 1030 2380 3500 3740 4410 5210
2026-05-06 05:15 1.71 1010 6900 (1958) 347 (2000) 2440 492 622 922 1030 2380 3500 3740 4410 5210
2026-05-06 04:15 1.71 1010 6900 (1958) 347 (2000) 2440 492 622 922 1030 2380 3500 3740 4410 5210
2026-05-06 03:15 1.72 1010 6900 (1958) 347 (2000) 2440 492 622 922 1030 2380 3500 3740 4410 5210
2026-05-06 02:15 1.73 1010 6900 (1958) 347 (2000) 2440 492 622 922 1030 2380 3500 3740 4410 5210
2026-05-06 01:15 1.74 1020 6900 (1958) 347 (2000) 2440 492 622 922 1030 2380 3500 3740 4410 5210
2026-05-06 00:15 1.75 1020 6900 (1958) 347 (2000) 2440 492 622 922 1030 2380 3500 3740 4410 5210
2026-05-05 23:15 1.75 1020 6900 (1958) 347 (2000) 2440 492 622 922 1030 2380 3500 3740 4410 5210
2026-05-05 22:15 1.76 1020 8610 (2011) 353 (2000) 2540 501 644 880 1010 2430 3420 3790 4290 7030
2026-05-05 21:15 1.78 1030 8610 (2011) 353 (2000) 2540 501 644 880 1010 2430 3420 3790 4290 7030
2026-05-05 20:15 1.81 1040 8610 (2011) 353 (2000) 2540 501 644 880 1010 2430 3420 3790 4290 7030
2026-05-05 19:15 1.83 1050 8610 (2011) 353 (2000) 2540 501 644 880 1010 2430 3420 3790 4290 7030
2026-05-05 18:15 1.84 1050 8610 (2011) 353 (2000) 2540 501 644 880 1010 2430 3420 3790 4290 7030
2026-05-05 17:15 1.87 1060 8610 (2011) 353 (2000) 2540 501 644 880 1010 2430 3420 3790 4290 7030
2026-05-05 16:15 1.90 1070 8610 (2011) 353 (2000) 2540 501 644 880 1010 2430 3420 3790 4290 7030
2026-05-05 15:15 1.92 1080 8610 (2011) 353 (2000) 2540 501 644 880 1010 2430 3420 3790 4290 7030
2026-05-05 14:15 1.96 1090 8610 (2011) 353 (2000) 2540 501 644 880 1010 2430 3420 3790 4290 7030
2026-05-05 13:15 1.99 1100 8610 (2011) 353 (2000) 2540 501 644 880 1010 2430 3420 3790 4290 7030
2026-05-05 12:15 2.03 1120 8610 (2011) 353 (2000) 2540 501 644 880 1010 2430 3420 3790 4290 7030
2026-05-05 11:15 2.08 1130 8610 (2011) 353 (2000) 2540 501 644 880 1010 2430 3420 3790 4290 7030
2026-05-05 10:15 2.11 1140 8610 (2011) 353 (2000) 2540 501 644 880 1010 2430 3420 3790 4290 7030
2026-05-05 09:15 2.16 1160 8610 (2011) 353 (2000) 2540 501 644 880 1010 2430 3420 3790 4290 7030
2026-05-05 08:15 2.20 1180 8610 (2011) 353 (2000) 2540 501 644 880 1010 2430 3420 3790 4290 7030
2026-05-05 07:15 2.25 1190 8610 (2011) 353 (2000) 2540 501 644 880 1010 2430 3420 3790 4290 7030
2026-05-05 06:15 2.27 1200 8610 (2011) 353 (2000) 2540 501 644 880 1010 2430 3420 3790 4290 7030
2026-05-05 05:15 2.29 1210 8610 (2011) 353 (2000) 2540 501 644 880 1010 2430 3420 3790 4290 7030
2026-05-05 04:15 2.30 1210 8610 (2011) 353 (2000) 2540 501 644 880 1010 2430 3420 3790 4290 7030
2026-05-05 03:15 2.31 1210 8610 (2011) 353 (2000) 2540 501 644 880 1010 2430 3420 3790 4290 7030
2026-05-05 02:15 2.33 1220 8610 (2011) 353 (2000) 2540 501 644 880 1010 2430 3420 3790 4290 7030
2026-05-05 01:15 2.35 1230 8610 (2011) 353 (2000) 2540 501 644 880 1010 2430 3420 3790 4290 7030
2026-05-05 00:15 2.35 1230 8610 (2011) 353 (2000) 2540 501 644 880 1010 2430 3420 3790 4290 7030
2026-05-04 23:15 2.35 1230 8610 (2011) 353 (2000) 2540 501 644 880 1010 2430 3420 3790 4290 7030
2026-05-04 22:15 2.34 1230 14800 (2011) 364 (2000) 2690 506 651 943 1030 2590 3580 3750 4730 7110
2026-05-04 21:15 2.36 1230 14800 (2011) 364 (2000) 2690 506 651 943 1030 2590 3580 3750 4730 7110
2026-05-04 20:15 2.35 1230 14800 (2011) 364 (2000) 2690 506 651 943 1030 2590 3580 3750 4730 7110
2026-05-04 19:15 2.35 1230 14800 (2011) 364 (2000) 2690 506 651 943 1030 2590 3580 3750 4730 7110
2026-05-04 18:15 2.34 1230 14800 (2011) 364 (2000) 2690 506 651 943 1030 2590 3580 3750 4730 7110
2026-05-04 17:15 2.34 1230 14800 (2011) 364 (2000) 2690 506 651 943 1030 2590 3580 3750 4730 7110
2026-05-04 16:15 2.35 1230 14800 (2011) 364 (2000) 2690 506 651 943 1030 2590 3580 3750 4730 7110
2026-05-04 15:15 2.34 1230 14800 (2011) 364 (2000) 2690 506 651 943 1030 2590 3580 3750 4730 7110
2026-05-04 14:15 2.37 1240 14800 (2011) 364 (2000) 2690 506 651 943 1030 2590 3580 3750 4730 7110
2026-05-04 13:15 2.37 1240 14800 (2011) 364 (2000) 2690 506 651 943 1030 2590 3580 3750 4730 7110
2026-05-04 12:15 2.37 1240 14800 (2011) 364 (2000) 2690 506 651 943 1030 2590 3580 3750 4730 7110
2026-05-04 11:15 2.35 1230 14800 (2011) 364 (2000) 2690 506 651 943 1030 2590 3580 3750 4730 7110
2026-05-04 10:15 2.37 1240 14800 (2011) 364 (2000) 2690 506 651 943 1030 2590 3580 3750 4730 7110
2026-05-04 09:15 2.37 1240 14800 (2011) 364 (2000) 2690 506 651 943 1030 2590 3580 3750 4730 7110
2026-05-04 08:15 2.36 1230 14800 (2011) 364 (2000) 2690 506 651 943 1030 2590 3580 3750 4730 7110
2026-05-04 07:15 2.37 1240 14800 (2011) 364 (2000) 2690 506 651 943 1030 2590 3580 3750 4730 7110
2026-05-04 06:15 2.38 1240 14800 (2011) 364 (2000) 2690 506 651 943 1030 2590 3580 3750 4730 7110
2026-05-04 05:15 2.37 1240 14800 (2011) 364 (2000) 2690 506 651 943 1030 2590 3580 3750 4730 7110
2026-05-04 04:15 2.37 1240 14800 (2011) 364 (2000) 2690 506 651 943 1030 2590 3580 3750 4730 7110
2026-05-04 03:15 2.37 1240 14800 (2011) 364 (2000) 2690 506 651 943 1030 2590 3580 3750 4730 7110
2026-05-04 02:15 2.37 1240 14800 (2011) 364 (2000) 2690 506 651 943 1030 2590 3580 3750 4730 7110
2026-05-04 01:15 2.38 1240 14800 (2011) 364 (2000) 2690 506 651 943 1030 2590 3580 3750 4730 7110
2026-05-04 00:15 2.38 1240 14800 (2011) 364 (2000) 2690 506 651 943 1030 2590 3580 3750 4730 7110
2026-05-03 23:15 2.37 1240 14800 (2011) 364 (2000) 2690 506 651 943 1030 2590 3580 3750 4730 7110
2026-05-03 22:15 2.37 1240 18500 (2011) 373 (2000) 2650 542 664 981 1190 2210 3450 3730 4570 5370
2026-05-03 21:15 2.37 1240 18500 (2011) 373 (2000) 2650 542 664 981 1190 2210 3450 3730 4570 5370
2026-05-03 20:15 2.36 1230 18500 (2011) 373 (2000) 2650 542 664 981 1190 2210 3450 3730 4570 5370
2026-05-03 19:15 2.37 1240 18500 (2011) 373 (2000) 2650 542 664 981 1190 2210 3450 3730 4570 5370
2026-05-03 18:15 2.37 1240 18500 (2011) 373 (2000) 2650 542 664 981 1190 2210 3450 3730 4570 5370
2026-05-03 17:15 2.37 1240 18500 (2011) 373 (2000) 2650 542 664 981 1190 2210 3450 3730 4570 5370
2026-05-03 16:15 2.36 1230 18500 (2011) 373 (2000) 2650 542 664 981 1190 2210 3450 3730 4570 5370
2026-05-03 15:15 2.37 1240 18500 (2011) 373 (2000) 2650 542 664 981 1190 2210 3450 3730 4570 5370
2026-05-03 14:15 2.36 1230 18500 (2011) 373 (2000) 2650 542 664 981 1190 2210 3450 3730 4570 5370
2026-05-03 13:15 2.37 1240 18500 (2011) 373 (2000) 2650 542 664 981 1190 2210 3450 3730 4570 5370
2026-05-03 12:15 2.35 1230 18500 (2011) 373 (2000) 2650 542 664 981 1190 2210 3450 3730 4570 5370
2026-05-03 11:15 2.36 1230 18500 (2011) 373 (2000) 2650 542 664 981 1190 2210 3450 3730 4570 5370
2026-05-03 10:15 2.35 1230 18500 (2011) 373 (2000) 2650 542 664 981 1190 2210 3450 3730 4570 5370
2026-05-03 09:15 2.35 1230 18500 (2011) 373 (2000) 2650 542 664 981 1190 2210 3450 3730 4570 5370
2026-05-03 08:15 2.36 1230 18500 (2011) 373 (2000) 2650 542 664 981 1190 2210 3450 3730 4570 5370
2026-05-03 07:15 2.36 1230 18500 (2011) 373 (2000) 2650 542 664 981 1190 2210 3450 3730 4570 5370
2026-05-03 06:15 2.34 1230 18500 (2011) 373 (2000) 2650 542 664 981 1190 2210 3450 3730 4570 5370
2026-05-03 05:15 2.33 1220 18500 (2011) 373 (2000) 2650 542 664 981 1190 2210 3450 3730 4570 5370
2026-05-03 04:15 2.31 1210 18500 (2011) 373 (2000) 2650 542 664 981 1190 2210 3450 3730 4570 5370
2026-05-03 03:15 2.30 1210 18500 (2011) 373 (2000) 2650 542 664 981 1190 2210 3450 3730 4570 5370
2026-05-03 02:15 2.31 1210 18500 (2011) 373 (2000) 2650 542 664 981 1190 2210 3450 3730 4570 5370
2026-05-03 01:15 2.29 1210 18500 (2011) 373 (2000) 2650 542 664 981 1190 2210 3450 3730 4570 5370
2026-05-03 00:15 2.27 1200 18500 (2011) 373 (2000) 2650 542 664 981 1190 2210 3450 3730 4570 5370
2026-05-02 23:15 2.26 1200 18500 (2011) 373 (2000) 2650 542 664 981 1190 2210 3450 3730 4570 5370

A total of 178 rows are displayed for years 1949 through 2025.